Flag for U.S.A. Weather past 2 weeks in Chinle, Arizona, U.S.A.

Now
82 °F

Sunny.


Feels Like: 81 °F
Forecast: 62 / 83 °F
Wind: 5 mph from Northeast

Location: Gallup Municipal Airport

Current Time: Jul 31, 2015 at 5:56:40 PM

Latest Report: Jul 31, 2015 at 4:53 PM


Visibility: 10 mi

Pressure: 29.79 "Hg (24.62 "Hg at 1678m altitude)

Humidity: 35%

Dew point: 52 °F

Location of ChinleLocation

Historic Weather in Chinle — Graph

°F

Chinle temperature yesterday

Maximum temperature yesterday: 74 °F (at 1:53 PM)
Minimum temperature yesterday: 58 °F (at 6:53 AM)
Average temperature yesterday: 65 °F

Past Weeks' High & Low Weather Summary

 TemperatureHumidityPressure
High91 °F (Jul 26, 3:53 PM)93% (Jul 19, 6:53 AM)30.34 "Hg (Jul 19, 6:53 AM)
Low49 °F (Jul 21, 5:53 AM)12% (Jul 22, 3:53 PM)29.54 "Hg (Jul 27, 5:53 PM)
Average70 °F48%29.78 "Hg
* Reported Jul 16 3:53 PM — Jul 31 3:53 PM, Chinle, Weather by CustomWeather, © 2015

Note: Actual official high and low records may vary slightly from our data, if they occured in-between our weather recording intervals... More about our weather records

Advertising

Chinle weather history for previous 24 hours

 ConditionsComfort  
Time TempWeatherWind HumidityBarometerVisibility
3:53 PM
Fri, Jul 31
81 °FSunny.3 mph35%29.81 "Hg10 mi
3:03 PM79 °FSunny.6 mph42%30.34 "Hg10 mi
1:53 PM78 °FCloudy.9 mph43%29.89 "Hg10 mi
12:53 PM80 °FBroken clouds.6 mph44%29.87 "Hg10 mi
11:53 AM77 °FThundershowers. Sunny.7 mph54%29.90 "Hg10 mi
10:53 AM71 °FScattered clouds.3 mph63%29.96 "Hg10 mi
9:53 AM73 °FSunny.3 mph59%29.96 "Hg10 mi
8:53 AM69 °FSunny.6 mph66%29.97 "Hg10 mi
7:53 AM64 °FPassing clouds.No wind78%29.97 "Hg10 mi
6:53 AM61 °FMostly cloudy.5 mph87%29.98 "Hg10 mi
5:53 AM60 °FMostly cloudy.No wind86%29.99 "Hg10 mi
4:53 AM60 °FMostly cloudy.No wind86%29.98 "Hg10 mi
3:53 AM61 °FMostly cloudy.7 mph83%29.97 "Hg10 mi
2:53 AM61 °FMostly cloudy.9 mph83%30.01 "Hg10 mi
1:53 AM60 °FPassing clouds.6 mph83%29.98 "Hg10 mi
12:53 AM62 °FMostly cloudy.8 mph80%29.99 "Hg10 mi
11:53 PM
Thu, Jul 30
62 °FPartly cloudy.7 mph78%29.99 "Hg10 mi
10:53 PM63 °FMostly cloudy.8 mph75%30.01 "Hg10 mi
9:53 PM63 °FMostly cloudy.16 mph78%30.02 "Hg10 mi
8:53 PM64 °FOvercast.3 mph87%29.98 "Hg10 mi
7:53 PM67 °FMostly cloudy.7 mph81%29.96 "Hg10 mi
6:53 PM68 °FLight rain. Overcast.No wind78%29.96 "Hg10 mi
5:53 PM68 °FLight rain. Overcast.3 mph73%29.95 "Hg10 mi
Weather by CustomWeather, © 2015

See weather overviewHow to use our weather pages